CELESTIS 02/TAURUS R/B

Satellite information

Favourite Embed

Satellite Type and Status

ROCKET BODYIN ORBIT

Key statistics

Satellite CELESTIS 02/TAURUS R/B at a glance.

Uptime

10011

Days in orbit

Revolutions

≈ 14.2

Per day

Orbit

SSO

Sun Synchronous Orbit

Inclination

108.0

Latest

Satellite identification and parameters

Extended collection of information and parameters for CELESTIS 02/TAURUS R/B.

Object identification

Identified? True

Debris? False

Object name: CELESTIS 02/TAURUS R/B

International designator: 1998-007D

Object number (NORAD): 25160

Object ID (CCSDS): 25160

Country: UNITED STATES OF AMERICA (US)

Current information (Y/N): Y

RCS size: LARGE

Orbital parameters

Period: 101.241 minutes

Inclination: 108.0109 deg

SMA: 7195.564 km

Apoapsis: 861.958 km

Periapsis: 772.901 km

RAAN: 358.9069 deg

Eccentricy: 0.0061883

Argument of periapsis: 358.5979 deg

Mean anomaly: 13.1863 deg

Mean motion: 14.223467 rev/day

Mean motion (dot): -0.00000021 rev/day2

B* drag term: 0.000047874 1/REarth

Two-line elements (TLE)

Creation date: July 9, 2025, 2:22 a.m.

Reference frame: TEME

Reference center: EARTH

Epoch: July 8, 2025, 4:43 p.m. UTC

TLE line 0: 0 CELESTIS 02/TAURUS R/B

TLE line 1: 1 25160U 98007D 25189.69687777 -.00000021 00000-0 47874-4 0 9998

TLE line 2: 2 25160 108.0109 358.9069 0061883 358.5979 13.1863 14.22346700421678

Live tracking on map

Real-time ground track for satellite CELESTIS 02/TAURUS R/B.

In-orbit conjunctions

A list of the most updated potential collisions computed for object CELESTIS 02/TAURUS R/B.

Target Orbit TCA Probability of collision Miss distance Type
FENGYUN 1C DEB SSO 2025-03-22 16:16:13 0.002628458 41.0 (m) DEBRIS
CZ-6A DEB SSO 2024-08-25 13:27:28 0.0001021963 255.0 (m) DEBRIS
METEOR 2-8 DEB LEO 2024-06-11 09:16:15 0.0002539373 392.0 (m) DEBRIS

Associated space launch

The US Navy GFO (Geosat Follow On), is a 369 kg minisatellite based on the Techstar platform to carry on the mission of Geosat. It was launched on the 10th February 1998 on a Taurus-2210 from VAFB alongside two Orbcomm satellites, into a 789 × 881 km (779 × 790 km planned) 108 degree inclined orbit.

CELESTIS 02/TAURUS R/B was lifted into orbit during the mission ‘Taurus 2210 | GFO’, on board a Minotaur-C 2210 space rocket.

The launch took place on Feb. 10, 1998, 1:20 p.m. from Space Launch Complex 576E.

For more information about the launch, click the button.

Launch to space Taurus 2210 | GFO
Taurus 2210 | GFO

Agency: N/A

Status: Launch Successful

Launch date: Feb. 10, 1998, 1:20 p.m. UTC

Rocket: Minotaur-C 2210

Launch pad: Space Launch Complex 576E

Location: Vandenberg SFB, CA, USA

...

Latest news about this satellite

There are no fresh news available about this satellite. Check back as we update our databases every day.


Newsletter sign-up

Weekly statistics, charts and insights to help you stay on top of the space industry.